Starlink 5305

operational
NORAD ID: 55314 Int'l Des: 2023-010 Owner: SPXS Country: US Constellation: starlink
LEOCIRCULAR

About Starlink 5305

Description loading...

Live Position

Loading 3D Globe...

Upcoming Passes

Altitude History

Altitude vs Time

uPlot chart will show altitude changes over time

Two-Line Element Set

1 55314U 23010AX 26063.16743760 -.00000109 00000-0 -13651-5 0 9998
2 55314 70.0012 18.4372 0002993 267.6330 92.4486 14.98339818173812
Epoch: Mar 4, 2026 • Age: 16 hours

Current Status

Altitude 584.3 km
Velocity 7.57 km/s
Sub-Earth Point 63.18°N, 27.24°E
Launch Date Jan 19, 2023
Age 3.1 years
Type internet

Technical Details

Classification Payload
Mass 305.00 kg
Dry Mass 290.00 kg
Total Mass 305.00 kg
Length 0.20 m
Diameter 2.80 m
Span 9.00 m
Shape Box + pan
Manufacturer SPXS
Bus Type Starlink
Phase Status In Orbit
Owner/State SPXS/US

Large Constellations

Loading constellations...